Regional Weather Roundup
Issued by NWS Kansas City/Pleasant Hill, MO

Home | Current Version | Previous Version | Graphics & Text | Print | Product List | Glossary Off
Versions: 1 2 3 4 5 6 7 8 9 10 11 12 13 14 15 16 17 18 19 20 21 22 23 24 25 26 27 28 29 30 31 32 33 34 35 36 37 38 39 40 41 42 43 44 45 46 47 48 49 50

135
ASUS43 KEAX 251510
RWREAX

WEATHER ROUNDUP FOR EASTERN KANSAS AND NORTHWEST MISSOURI
NATIONAL WEATHER SERVICE KANSAS CITY/PLEASANT HILL MO
1000 AM CDT SAT MAR 25 2017

KSZ040-057-103>105-MOZ028-029-037-043-251600-
...KANSAS CITY METROPOLITAN AREA...

CITY           SKY/WX    TMP DP  RH WIND       PRES   REMARKS
K.C. INTL      DRIZZLE   51  51 100 N12       29.83R FOG
K.C. DOWNTOWN  CLOUDY    57  53  86 NE8       29.81S
LEES SUMMIT    LGT RAIN  53  51  93 NE6       29.82R
OLATHE - IXD   CLOUDY    47  47 100 NW9       29.83S
OLATHE - OJC   CLOUDY    48  48 100 NW6       29.82R
LAWRENCE       CLOUDY    47  47 100 NW9       29.85R FOG

$$

MOZ001>008-011>017-020>025-030>033-038>040-044>046-053-054-251600-
...NORTHERN AND CENTRAL MISSOURI...

CITY           SKY/WX    TMP DP  RH WIND       PRES   REMARKS
ST. JOSEPH     LGT RAIN  48  47  96 N17G24    29.87R
WARRENSBURG    LGT RAIN  54  50  87 NW6       29.81F
WHITEMAN AFB   PTSUNNY   55  55 100 NE3       29.79F
CLINTON        LGT RAIN  54  54 100 SE7       29.81R
SEDALIA        PTSUNNY   58  52  80 CALM      29.83S
WARSAW         NOT AVBL
CHILLICOTHE      N/A     53  52  96 N10G20    29.86R
KIRKSVILLE     CLOUDY    51  51 100 NE10      29.85R FOG

$$

MOZ041-047>049-056>058-063>065-088>090-097-251600-
...EASTERN AND SOUTHERN MISSOURI...

CITY           SKY/WX    TMP DP  RH WIND       PRES   REMARKS
ST. LOUIS INTL CLOUDY    60  54  80 SE17G26   29.88R
SPIRIT OF STL  CLOUDY    59  54  83 S10G23    29.87R
COLUMBIA       CLOUDY    56  53  90 SE5       29.83S
JEFFERSON CITY CLOUDY    58  52  80 E9        29.83R
ROLLA          CLOUDY    56  53  90 S13       29.83R
OSAGE BEACH    CLOUDY   N/A N/A N/A S10       29.83R
SPRINGFIELD    LGT RAIN  54  51  90 SW5       29.79S
BRANSON        PTSUNNY   54  54 100 W3        29.80S FOG
JOPLIN         CLOUDY    50  49  96 NW13      29.84R
WEST PLAINS    CLOUDY    56  54  93 SE10G21   29.84S

$$

IAZ060-094-KSZ022-034>040-054-083-096-NEZ052-066-093-251600-
...KANSAS...SOUTHEAST NEBRASKA AND IOWA...

CITY           SKY/WX    TMP DP  RH WIND       PRES   REMARKS
TOPEKA         LGT RAIN  45  45 100 NW6       29.87R FOG
MANHATTAN      LGT RAIN  43  41  93 N10       29.91S FOG
EMPORIA        LGT RAIN  43  43 100 NW16      29.87F
CHANUTE        CLOUDY    47  42  83 NW15      29.85F
WICHITA        CLOUDY    44  44 100 N18G26    29.92S
OMAHA          LGT RAIN  41  37  86 N15       29.98S WCI  33
LINCOLN        LGT RAIN  41  38  89 N18       29.99F WCI  32
FALLS CITY     LGT RAIN  43  41  93 N16G24    29.89F
LAMONI         LGT RAIN  42  41  96 N13       29.90R FOG
DES MOINES     LGT RAIN  40  38  93 NE16      29.95S FOG     WCI  31

$$





USA.gov is the U.S. government's official web portal to all federal, state and local government web resources and services.